Tracking 19817 objects as of 18-Aug-2019
HD Live streaming from Space Station
objects crossing your sky now

COSMOS 2251 DEB

Track COSMOS 2251 DEB now!
10-day predictions


NORAD ID: 34308
Int'l Code: 1993-036NE
Perigee: 632.7 km
Apogee: 705.3 km
Inclination: 74.0 °
Period: 98.0 minutes
Semi major axis: 7039 km
RCS: 0.0637 m2 (small)
Launch date: June 16, 1993
Source: Commonwealth of Independent States (former USSR) (CIS)
Launch site: PLESETSK MISSILE AND SPACE COMPLEX (PKMTR)

Note: This is SATELLITE DEBRIS
aabbcc
Your satellite tracking list
Your tracking list is empty




NASA's NSSDC Master Catalog

Two Line Element Set (TLE):
1 34308U 93036NE  19229.20047125  .00000961  00000-0  16354-3 0  9991
2 34308  73.9955 275.8465 0051596 271.3365 143.3080 14.69757758557845
Source of the keplerian elements: AFSPC